Location: Callao
(39.8979°N, 113.7141°W)
Time: 14:09:42
(UTC+00:00)

X-37B - Pass Details

Date: 13 March 2021
Orbit: 380 x 394 km, 45.0° (Epoch: 07 April)

Event Time Altitude Azimuth Distance (km) Brightness Sun altitude
Rises 03:32:29 0° 259° (W) 2,267 5.5 -22.3°
Reaches altitude 10° 03:34:35 10° 265° (W) 1,417 4.4 -22.7°
Enters shadow 03:36:57 40° 296° (WNW) 591 1.9 -23.2°
